Dewpoint
42 43 45 46 49 52 53 57 57 58 57 57 59 58 60 59 59 58 57 57 56 55 55 54 53 53 52 51 51 51 50 49 44 45 45 45 44 45 44 43 45 48 49
39 40 41 44 47 51 52 52 57 57 56 56 59 59 59 59 58 58 57 57 56 54 54 54 53 52 50 50 50 49 49 48 46 43 44 43 42 41 39 37 38 40 43
39 40 40 42 44 48 51 52 53 58 55 56 59 59 59 58 58 58 57 56 55 55 54 53 53 51 49 48 49 48 47 47 46 43 41 43 43 40 35 33 32 34 36
38 39 40 41 43 48 51 53 55 58 56 57 59 58 59 58 58 57 57 56 56 56 55 54 52 50 48 48 48 47 46 45 44 42 41 41 40 35 32 30 29 29 31
38 38 40 41 44 48 50 53 55 57 56 58 58 58 58 58 57 57 56 56 54 53 52 52 51 51 51 49 47 46 45 44 43 39 34 33 32 33 29 28 27 27 27
37 37 39 40 43 46 48 51 53 57 57 58 58 57 57 57 56 56 55 54 53 52 52 52 51 51 51 50 49 46 42 37 33 31 30 29 28 29 29 29 28 23 25
37 37 38 39 41 44 46 49 51 57 57 58 57 56 55 56 56 55 54 52 51 49 47 46 45 44 44 42 44 43 41 40 35 29 28 27 27 27 23 22 22 23 23
37 37 38 39 41 43 45 47 52 55 57 56 55 55 55 55 55 53 50 44 42 41 40 38 36 34 34 32 30 30 30 29 28 27 28 28 28 26 22 22 22 22 23
37 37 37 38 40 43 44 46 53 56 55 54 54 53 52 51 51 47 43 40 38 37 36 35 35 34 39 39 34 34 33 34 38 40 40 38 35 34 31 26 23 21 21
37 38 38 38 40 43 44 48 54 54 53 53 52 51 50 47 48 46 42 39 38 36 36 36 40 37 40 37 30 28 25 23 23 22 22 25 27 28 31 23 23 21 21
38 39 39 39 41 43 45 52 51 50 51 50 49 48 46 45 46 46 44 39 38 37 37 37 37 39 37 35 30 24 23 25 26 22 22 22 22 22 23 23 22 22 21
39 39 39 39 42 44 47 50 49 48 47 46 46 45 45 44 45 45 43 42 40 36 35 35 35 35 34 33 31 34 33 28 23 22 21 21 21 21 22 23 23 24 23
39 39 39 40 42 44 49 48 47 47 45 45 44 43 43 42 43 44 42 41 39 34 32 34 36 36 36 34 34 33 30 24 23 22 21 22 22 22 22 23 23 23 23
38 39 39 40 43 49 49 49 47 46 45 44 42 41 42 41 39 37 36 36 37 35 37 35 35 34 34 33 29 26 24 24 23 22 22 22 23 22 22 22 22 22 22
39 40 40 41 43 48 49 48 47 47 45 44 42 40 39 38 37 37 36 35 35 36 34 30 27 25 23 24 25 25 25 23 23 23 23 23 23 22 22 23 22 22 21
39 39 39 41 47 47 47 47 49 48 47 45 44 41 40 41 41 40 40 39 38 36 29 25 23 23 23 23 22 24 25 25 24 24 24 24 24 23 23 23 22 22 21
39 38 41 46 46 45 45 44 43 46 46 45 45 43 43 42 42 41 41 39 36 31 24 23 23 23 23 23 23 23 23 24 25 25 25 25 25 25 23 23 23 23 22
39 41 45 46 45 45 44 43 42 42 41 43 44 43 43 43 42 41 38 34 28 27 24 24 23 23 23 23 23 23 24 25 25 25 25 25 25 24 23 23 23 23 23
41 46 47 46 45 44 44 43 42 42 41 41 42 41 42 42 40 37 33 26 25 25 25 25 24 24 24 24 25 26 25 25 26 26 26 25 24 24 24 24 25 26 24
47 47 46 45 44 44 44 42 42 41 40 39 39 38 38 36 32 28 27 26 26 26 25 25 25 25 26 26 26 26 27 25 25 25 24 24 24 24 24 24 24 23 23
46 46 46 45 44 44 43 42 41 40 38 38 37 37 37 31 28 27 27 27 27 26 26 26 26 27 27 27 27 26 25 25 25 24 24 24 24 24 25 25 25 24 24
46 45 45 44 44 44 43 42 40 39 37 36 36 36 35 29 28 28 28 28 28 27 27 27 27 27 27 27 27 25 25 25 25 25 25 25 25 25 24 24 24 24 24
46 45 44 44 43 43 42 41 39 37 36 36 34 32 30 29 29 29 29 29 29 29 29 28 28 27 28 27 27 27 26 25 26 26 25 25 25 25 25 25 25 25 25
45 44 44 43 43 42 41 40 38 36 35 33 31 30 30 30 30 30 30 30 30 29 29 28 28 28 27 27 27 27 26 26 26 26 25 25 26 25 25 26 26 26 26
45 44 43 42 42 41 40 39 36 34 33 31 30 30 31 31 30 31 31 30 30 29 28 28 28 28 27 27 27 27 30 29 26 27 26 25 25 24 25 25 25 25 25
45 44 43 43 41 40 39 37 35 33 31 30 31 31 31 31 31 31 31 30 30 29 28 28 28 28 28 27 27 31 32 31 29 29 26 25 24 24 25 25 25 25 25
Lifted_Index
8 7 7 6 3 1 0 -1 -2 -3 -3 -3 -3 -2 -2 -1 0 2 2 2 2 2 2 2 2 2 2 2 2 2 3 3 4 4 5 5 6 6 6 6 7 8 8
8 8 7 6 3 1 0 -0 -2 -2 -3 -2 -2 -1 -1 -0 1 2 2 2 2 2 2 2 2 2 2 2 2 2 3 3 4 4 5 5 6 6 7 7 8 9 10
8 8 8 6 4 1 0 0 -1 -2 -2 -1 -1 -1 -0 0 1 2 2 2 2 2 2 2 2 2 3 3 3 3 3 4 4 4 5 6 7 7 8 9 10 11 12
9 9 8 7 4 1 0 0 -0 -1 -1 -0 -0 -0 0 1 2 2 2 2 2 2 2 2 2 3 3 3 3 4 4 4 5 5 6 7 7 8 10 11 12 14 15
9 9 9 7 4 1 1 1 0 -0 -0 0 0 0 1 2 2 2 2 2 2 2 2 3 3 3 3 4 4 4 5 5 6 6 7 8 9 10 12 13 14 15 16
9 9 9 7 4 2 1 1 1 0 -0 0 1 1 2 2 2 2 2 2 2 3 3 4 4 4 4 4 4 5 6 6 7 8 9 10 12 13 14 15 16 16 16
9 9 9 8 5 2 1 2 2 1 0 0 1 2 2 2 2 2 2 2 3 3 4 4 4 4 4 5 6 6 7 9 10 12 13 14 15 16 16 16 17 17 17
9 9 9 8 5 3 2 2 2 1 1 1 1 2 2 2 2 2 2 2 3 4 4 4 4 5 5 6 7 8 10 12 14 16 16 17 17 17 17 17 17 17 18
9 9 9 8 6 3 2 2 2 1 1 1 1 2 2 2 2 2 2 3 3 4 4 5 5 6 7 8 9 11 13 15 16 17 17 17 18 18 18 17 17 17 17
8 9 9 8 6 4 3 2 2 1 1 1 2 2 2 2 2 2 3 3 4 4 5 6 7 9 10 12 13 14 15 16 17 17 17 17 17 18 18 18 17 17 16
8 9 9 8 6 4 3 2 2 2 2 2 2 2 2 2 2 3 3 3 4 5 6 8 10 13 15 16 16 17 16 17 17 16 16 16 17 17 17 18 18 17 16
9 9 8 7 5 4 2 2 2 2 2 2 2 3 3 3 3 3 4 4 5 6 8 11 14 16 18 18 18 17 17 17 16 16 16 15 16 16 17 18 18 18 18
9 9 8 6 4 3 3 2 2 3 3 3 3 3 3 3 4 4 5 6 7 9 11 14 17 18 18 18 18 18 17 17 16 15 15 15 15 16 17 18 18 17 17
9 9 7 5 3 3 3 3 3 3 3 3 3 3 3 4 4 5 6 8 10 12 15 17 18 18 18 18 18 18 17 17 16 15 15 15 15 16 17 17 16 16 16
9 8 6 4 3 3 3 3 3 3 3 3 3 4 4 4 5 6 8 10 12 14 16 17 17 17 17 17 17 17 17 16 15 15 14 15 15 15 16 16 16 15 14
9 7 5 4 4 4 3 3 3 3 3 3 3 4 4 5 6 8 10 12 14 15 16 16 16 16 16 16 16 16 16 15 15 15 14 14 14 15 15 15 15 14 14
7 5 4 4 4 3 3 3 3 3 3 3 3 4 4 6 8 10 12 14 16 16 16 16 16 16 16 16 15 15 15 15 15 14 14 14 14 14 14 14 14 14 13
5 4 4 4 4 3 3 3 3 3 3 3 4 5 6 8 10 12 14 15 16 16 17 17 17 17 16 16 15 15 15 15 14 14 14 14 14 14 14 14 14 14 13
4 4 4 4 4 3 3 3 3 3 3 4 5 6 8 10 12 13 15 16 16 16 17 17 17 17 16 16 15 15 15 14 14 14 14 14 14 14 14 14 14 14 13
4 4 4 4 4 3 3 3 3 3 3 4 5 8 10 12 13 15 16 16 16 17 18 18 18 17 16 16 15 15 15 14 14 14 14 14 14 14 14 14 14 14 13
3 3 4 4 4 3 3 3 3 3 4 5 7 9 11 13 14 15 16 16 17 18 18 18 18 17 17 16 15 15 15 15 15 15 14 14 14 14 14 14 14 14 14
3 3 4 4 3 3 3 3 3 3 4 7 9 11 13 14 15 16 16 17 17 18 19 19 18 18 17 16 16 15 15 15 15 15 15 15 15 14 14 14 14 14 14
3 3 4 4 3 3 3 3 3 4 6 8 10 12 14 15 16 16 16 17 18 19 19 19 19 18 18 17 17 16 16 16 16 16 16 16 15 15 15 15 14 14 14
4 4 4 4 3 3 3 3 4 5 8 10 11 13 15 16 16 16 17 17 18 19 19 20 19 19 18 18 18 18 18 18 18 17 17 16 16 16 16 15 15 15 14
5 4 4 4 3 3 4 4 5 7 9 11 12 14 15 16 16 16 17 18 18 19 19 20 19 19 19 18 18 19 19 19 19 18 18 17 17 16 16 16 15 15 15
5 5 4 4 4 4 4 4 5 8 10 11 13 15 15 16 16 16 17 18 18 19 19 20 19 19 19 19 19 19 19 19 19 19 19 18 17 16 16 16 15 15 15